Seward, AK

11:12 AM AKDT on September 25, 2017 (GMT -0800)
Seward

Weather History for PAWD - October, 2013

Change the Weather History Date:

Wednesday, October 16, 2013

  Actual Average Record
Temperature  
Mean Temperature 46 °F -  
Max Temperature 48 °F 45 °F 55 °F (2003)
Min Temperature 45 °F 34 °F 24 °F (1996)
Degree Days  
Heating Degree Days 18    
Moisture  
Dew Point 44 °F    
Average Humidity 89    
Maximum Humidity 97    
Minimum Humidity 77    
Precipitation  
Precipitation 0.12 in - - ()
Sea Level Pressure  
Sea Level Pressure 30.31 in    
Wind  
Wind Speed 11 mph (South)    
Max Wind Speed 20 mph    
Max Gust Speed 26 mph    
Visibility 9 miles    
Events Rain    
Averages and records for this station are not official NWS values.
T = Trace of Precipitation, MM = Missing Value Source: NWS Daily Summary

Daily Weather History Graph

Daily Weather History Graph

Search for Another Location

Airport or City:

Trip Planner

Search our weather history database for the weather conditions in past years. The results will help you decide how hot, cold, wet, or windy it might be!

Date:

Astronomy

Oct. 16, 2013 Rise Set
Actual Time 8:41 AM AKDT 6:44 PM AKDT
Civil Twilight 7:58 AM AKDT 7:26 PM AKDT
Nautical Twilight 7:10 AM AKDT 8:14 PM AKDT
Astronomical Twilight 6:21 AM AKDT 9:03 PM AKDT
Moon 5:50 PM AKDT (10/16) 5:50 AM AKDT (10/16)
Length of Visible Light 11h 28m
Length of Day
10h 03m
Waxing Gibbous, 95% of the Moon is Illuminated
Oct 16
Waxing Gibbous
Oct 18
Full
Oct 26
Last Quarter
Nov 3
New
Nov 9
First Quarter

Hourly Weather History & Observations

Time (AKDT) Temp. Windchill Dew Point Humidity Pressure Visibility Wind Dir Wind Speed Gust Speed Precip Events Conditions
12:53 AM 48.9 °F - 46.9 °F 93% 30.28 in 9.0 mi SSW 13.8 mph - 0.00 in   Overcast
1:24 AM 48.2 °F - 46.4 °F 93% 30.29 in 5.0 mi South 11.5 mph 17.3 mph 0.00 in Rain Light Rain
1:53 AM 48.0 °F - 46.9 °F 96% 30.29 in 7.0 mi South 8.1 mph 17.3 mph 0.01 in   Overcast
2:06 AM 48.2 °F - 46.4 °F 93% 30.28 in 10.0 mi SSW 12.7 mph - N/A   Overcast
2:19 AM 48.2 °F - 46.4 °F 93% 30.29 in 10.0 mi SSW 12.7 mph - N/A   Overcast
2:32 AM 48.2 °F - 46.4 °F 93% 30.29 in 10.0 mi SSW 12.7 mph - N/A   Overcast
2:53 AM 48.0 °F - 46.9 °F 96% 30.29 in 6.0 mi SSW 13.8 mph - N/A   Overcast
3:07 AM 48.2 °F - 46.4 °F 93% 30.29 in 6.0 mi SSW 17.3 mph - N/A   Overcast
3:48 AM 48.2 °F - 46.4 °F 93% 30.29 in 4.0 mi South 15.0 mph - 0.01 in Rain Light Rain
3:53 AM 48.0 °F - 46.9 °F 96% 30.29 in 4.0 mi South 16.1 mph - 0.01 in Rain Light Rain
4:53 AM 48.0 °F - 46.9 °F 96% 30.29 in 5.0 mi South 8.1 mph 17.3 mph 0.01 in Rain Light Rain
5:16 AM 48.2 °F - 46.4 °F 93% 30.30 in 5.0 mi South 5.8 mph - 0.01 in Rain Light Rain
5:53 AM 48.0 °F - 46.9 °F 96% 30.30 in 7.0 mi South 6.9 mph - 0.01 in   Overcast
6:08 AM 48.2 °F - 46.4 °F 93% 30.30 in 3.0 mi South 9.2 mph - 0.01 in   Overcast
6:53 AM 48.0 °F - 46.0 °F 93% 30.30 in 10.0 mi South 11.5 mph 19.6 mph 0.01 in   Overcast
7:06 AM 48.2 °F - 46.4 °F 93% 30.30 in 10.0 mi South 5.8 mph 19.6 mph N/A   Overcast
7:53 AM 46.9 °F - 46.0 °F 97% 30.32 in 10.0 mi Variable 5.8 mph - N/A   Overcast
8:53 AM 46.9 °F - 45.0 °F 93% 30.32 in 10.0 mi South 6.9 mph - N/A   Overcast
9:53 AM 46.9 °F - 45.0 °F 93% 30.33 in 10.0 mi South 5.8 mph 16.1 mph N/A   Overcast
10:07 AM 46.4 °F 41.9 °F 44.6 °F 93% 30.33 in 10.0 mi South 9.2 mph 19.6 mph N/A   Overcast
10:15 AM 46.4 °F 39.0 °F 44.6 °F 93% 30.34 in 10.0 mi South 19.6 mph 26.5 mph N/A   Overcast
10:53 AM 46.9 °F - 43.0 °F 86% 30.35 in 10.0 mi South 10.4 mph 17.3 mph N/A   Overcast
11:53 AM 46.9 °F - 42.1 °F 83% 30.37 in 10.0 mi South 5.8 mph - N/A   Overcast
12:00 PM 46.4 °F 40.4 °F 42.8 °F 87% 30.37 in 10.0 mi South 13.8 mph 18.4 mph 0.00 in Rain Light Rain
12:34 PM 46.4 °F 43.5 °F 42.8 °F 87% 30.37 in 10.0 mi South 5.8 mph - 0.00 in Rain Light Rain
12:42 PM 46.4 °F 41.5 °F 42.8 °F 87% 30.36 in 10.0 mi SSW 10.4 mph - 0.01 in Rain Light Rain
12:53 PM 46.9 °F - 42.1 °F 83% 30.37 in 10.0 mi SSW 11.5 mph - 0.01 in Rain Light Rain
1:53 PM 48.0 °F - 42.1 °F 80% 30.35 in 10.0 mi SSW 13.8 mph - 0.00 in   Overcast
2:53 PM 48.0 °F - 41.0 °F 77% 30.34 in 10.0 mi South 15.0 mph - N/A   Overcast
3:53 PM 48.0 °F - 41.0 °F 77% 30.34 in 10.0 mi South 15.0 mph 19.6 mph 0.00 in   Overcast
4:53 PM 48.0 °F - 41.0 °F 77% 30.31 in 10.0 mi South 4.6 mph - 0.00 in   Overcast
5:53 PM 48.0 °F - 41.0 °F 77% 30.28 in 10.0 mi South 6.9 mph - N/A   Overcast
6:53 PM 46.9 °F - 41.0 °F 80% 30.27 in 10.0 mi SSE 10.4 mph - N/A   Overcast
7:53 PM 46.0 °F 41.9 °F 42.1 °F 86% 30.26 in 10.0 mi SSE 8.1 mph - 0.00 in Rain Light Rain
8:53 PM 48.0 °F - 41.0 °F 77% 30.27 in 10.0 mi SSE 8.1 mph - 0.00 in   Overcast
9:53 PM 46.0 °F 41.0 °F 43.0 °F 89% 30.27 in 10.0 mi SSE 10.4 mph - 0.00 in Rain Light Rain
10:53 PM 45.0 °F 41.8 °F 44.1 °F 97% 30.27 in 8.0 mi ESE 5.8 mph - 0.03 in Rain Light Rain
11:53 PM 46.0 °F 41.9 °F 44.1 °F 93% 30.25 in 6.0 mi SSE 8.1 mph - 0.03 in Rain Light Rain